Flag for U.S.A. Weather past 2 weeks in Winder, Georgia, U.S.A.

61 °F

Mostly cloudy.

Feels Like: 61 °F
Forecast: 59 / 76 °F
Wind: 5 mph from Southwest

Location: Winder-Barrow Airport

Current Time: Oct 13, 2015 at 8:27:10 AM

Latest Report: Oct 13, 2015 at 7:55 AM

Visibility: 10 mi

Pressure: 29.84 "Hg

Humidity: 88%

Dew point: 57 °F

Location of WinderLocation

Historic Weather in Winder — Graph


Winder temperature yesterday

Maximum temperature yesterday: 77 °F (at 2:15 PM)
Minimum temperature yesterday: 54 °F (at 6:35 AM)
Average temperature yesterday: 64 °F

Past Weeks' High & Low Weather Summary

High88 °F (Sep 30, 4:35 PM)94% (Sep 28, 7:15 AM)30.21 "Hg (Sep 28, 7:15 AM)
Low54 °F (Oct 12, 6:35 AM)42% (Oct 7, 12:55 PM)29.68 "Hg (Oct 4, 5:55 AM)
Average67 °F81%29.96 "Hg
* Reported Sep 28 7:15 AM — Oct 13 7:15 AM, Winder, Weather by CustomWeather, © 2015

Note: Actual official high and low records may vary slightly from our data, if they occured in-between our weather recording intervals... More about our weather records


Winder weather history for previous 24 hours

Time TempWeatherWind HumidityBarometerVisibility
7:15 AM
Tue, Oct 13
61 °FMostly cloudy.3 mph94%29.83 "Hg10 mi
6:55 AM61 °FMostly cloudy.5 mph88%29.83 "Hg10 mi
6:15 AM61 °FPassing clouds.No wind94%29.83 "Hg10 mi
5:55 AM61 °FPassing clouds.6 mph94%29.83 "Hg10 mi
5:35 AM61 °FPartly cloudy.6 mph94%29.83 "Hg7 mi
5:15 AM61 °FOvercast.No wind94%29.83 "Hg10 mi
4:55 AM61 °FMostly cloudy.3 mph88%29.84 "Hg10 mi
4:35 AM61 °FPassing clouds.3 mph88%29.82 "Hg10 mi
4:15 AM61 °FThundershowers. Mostly cloudy.No wind88%29.83 "Hg10 mi
3:55 AM61 °FThunderstorms. Mostly cloudy.No wind88%29.85 "Hg10 mi
3:35 AM61 °FThunderstorms. Mostly cloudy.3 mph88%29.86 "Hg5 mi
3:15 AM63 °FHeavy rain. Mostly cloudy.7 mph77%29.86 "Hg5 mi
2:55 AM63 °FThunderstorms. Passing clouds.3 mph77%29.85 "Hg10 mi
2:35 AM61 °FThundershowers. Passing clouds.7 mph83%29.84 "Hg10 mi
2:15 AM61 °FPassing clouds.5 mph83%29.83 "Hg10 mi
1:55 AM63 °FPassing clouds.7 mph77%29.84 "Hg10 mi
1:35 AM63 °FThundershowers. Passing clouds.5 mph77%29.84 "Hg10 mi
1:15 AM63 °FClear.3 mph77%29.84 "Hg10 mi
12:55 AM63 °FClear.7 mph77%29.84 "Hg10 mi
12:15 AM63 °FClear.6 mph77%29.86 "Hg10 mi
11:55 PM
Mon, Oct 12
63 °FClear.6 mph77%29.86 "Hg10 mi
11:35 PM63 °FClear.6 mph77%29.86 "Hg10 mi
11:15 PM63 °FClear.6 mph77%29.87 "Hg10 mi
10:55 PM63 °FClear.5 mph77%29.87 "Hg10 mi
10:35 PM63 °FClear.5 mph77%29.87 "Hg10 mi
10:15 PM63 °FClear.3 mph77%29.87 "Hg10 mi
9:55 PM63 °FClear.3 mph77%29.86 "Hg10 mi
9:35 PM64 °FClear.6 mph73%29.87 "Hg10 mi
9:15 PM64 °FClear.5 mph73%29.87 "Hg10 mi
8:55 PM63 °FClear.3 mph77%29.87 "Hg10 mi
8:35 PM66 °FClear.5 mph68%29.87 "Hg10 mi
8:15 PM66 °FClear.6 mph68%29.87 "Hg10 mi
7:55 PM64 °FSunny.5 mph78%29.87 "Hg10 mi
7:35 PM64 °FSunny.3 mph78%29.86 "Hg10 mi
7:15 PM68 °FSunny.No wind64%29.86 "Hg10 mi
6:55 PM68 °FSunny.3 mph64%29.86 "Hg10 mi
6:15 PM73 °FSunny.5 mph47%29.87 "Hg10 mi
5:55 PM73 °FSunny.No wind47%29.87 "Hg10 mi
5:15 PM75 °FSunny.5 mph44%29.87 "Hg10 mi
4:55 PM75 °FSunny.No wind44%29.87 "Hg10 mi
4:35 PM75 °FSunny.No wind44%29.87 "Hg10 mi
4:15 PM75 °FSunny.5 mph44%29.88 "Hg10 mi
3:55 PM77 °FScattered clouds.8 mph42%29.88 "Hg10 mi
3:35 PM75 °FPartly sunny.7 mph44%29.88 "Hg10 mi
3:15 PM75 °FScattered clouds.6 mph47%29.90 "Hg10 mi
2:55 PM75 °FPartly sunny.9 mph47%29.91 "Hg10 mi
2:35 PM72 °FPartly sunny.3 mph53%29.91 "Hg10 mi
2:15 PM77 °FScattered clouds.9 mph44%29.93 "Hg10 mi
1:55 PM75 °FScattered clouds.7 mph47%29.93 "Hg10 mi
1:15 PM75 °FBroken clouds.9 mph47%29.95 "Hg10 mi
12:55 PM72 °FScattered clouds.7 mph53%29.96 "Hg10 mi
12:35 PM72 °FBroken clouds.5 mph61%29.96 "Hg10 mi
12:15 PM73 °FScattered clouds.6 mph57%29.96 "Hg10 mi
11:55 AM72 °FScattered clouds.5 mph65%29.97 "Hg10 mi
11:35 AM70 °FBroken clouds.6 mph69%29.98 "Hg10 mi
11:15 AM70 °FScattered clouds.6 mph69%29.98 "Hg10 mi
10:55 AM68 °FScattered clouds.6 mph78%29.99 "Hg10 mi
10:35 AM66 °FSunny.No wind83%29.98 "Hg10 mi
10:15 AM64 °FSunny.No wind83%29.98 "Hg10 mi
9:55 AM63 °FSunny.No wind88%29.97 "Hg10 mi
9:35 AM61 °FSunny.No wind94%29.98 "Hg10 mi
9:15 AM59 °FScattered clouds.No wind88%29.98 "Hg10 mi
8:55 AM57 °FPartly sunny.No wind94%29.98 "Hg10 mi
8:35 AM57 °FOvercast.No wind94%29.98 "Hg10 mi
8:15 AM55 °FFog.No wind94%29.98 "Hg2 mi
Weather by CustomWeather, © 2015

See weather overviewHow to use our weather pages